Regional Weather Roundup
Issued by NWS

Home | Current Version | Previous Version | Graphics & Text | Print | Product List | Glossary On
Versions: 1 2 3 4 5 6 7 8 9 10 11 12 13 14 15 16 17 18 19 20 21 22 23 24 25 26 27 28 29 30 31 32 33 34 35 36 37 38 39 40 41 42 43 44 45 46 47 48 49 50
000
ASUS43 KLOT 260306
RWRIL

ILLINOIS REGIONAL WEATHER ROUNDUP
NATIONAL WEATHER SERVICE CHICAGO/ROMEOVILLE IL
900 PM CST SUN JAN 25 2015

NOTE: "FAIR" INDICATES FEW OR NO CLOUDS BELOW 12,000 FEET WITH NO
SIGNIFICANT WEATHER AND/OR OBSTRUCTIONS TO VISIBILITY.

* THESE STATIONS ARE NOT UNDER NWS QUALITY CONTROL. THEY ALSO MAY NOT
  REPORT WEATHER SUCH AS PRECIPITATION OR FOG.

ILZ001-002-007-009-015-016-024-260400-
NORTHWEST ILLINOIS

CITY           SKY/WX    TMP DP  RH WIND       PRES   REMARKS
MOLINE         CLEAR     22  14  71 N9        30.07R WCI  12
STERLING*      CLEAR     19  10  68 NE7       30.03R WCI  10
SAVANNA*       CLEAR     20  13  73 N5        30.07R WCI  14
$$

ILZ003-004-008-010-011-017-018-260400-
NORTH CENTRAL ILLINOIS

CITY           SKY/WX    TMP DP  RH WIND       PRES   REMARKS
ROCKFORD       CLEAR     19  10  68 N13       30.04S WCI   6
FREEPORT*      PTCLDY    15  11  84 N6        30.06R WCI   6
ROCHELLE*      CLEAR     20  12  72 N10       30.01F WCI   9
DE KALB*       CLEAR     18  13  79 N10       29.99S WCI   6
PERU*          CLEAR     23  17  79 N9        30.01S WCI  13
$$

ILZ005-006-012>014-019>023-260400-
NORTHEAST ILLINOIS

CITY           SKY/WX    TMP DP  RH WIND       PRES   REMARKS
CHICAGO-OHARE  PTCLDY    25  15  66 NE14      29.98R WCI  13
CHICAGO-MIDWAY MOCLDY    28  18  66 NE17G25   29.97R WCI  16
AURORA         CLEAR     23  14  68 N9        29.98S WCI  13
LANSING*       CLOUDY    27  20  76 NE13      29.97R WCI  16
JOLIET*        CLOUDY    26  18  71 N12       29.98R WCI  16
WAUKEGAN       CLEAR     24  12  60 N7        29.99S WCI  16
DUPAGE AIRPORT CLEAR     21  14  74 N10       29.97R WCI  10
KANKAKEE*      CLOUDY    28  23  82 NE12G22   29.95R WCI  17
WHEELING       CLEAR     25  15  66 NE9       30.00S WCI  15
MORRIS*        CLOUDY    27  21  80 N8        29.98R WCI  18
ROMEOVILLE*    MOCLDY    26  18  73 NE14      29.97R WCI  14
NORTHERLY ISL    N/A     27  19  72 NE17        N/A  WCI  14
$$

LMZ740>746-260400-
SOUTHERN LAKE MICHIGAN

STATION/POSITION SKY/WX   TEMP    WIND        PRES    VSBY  WAVE
                          AIR SEA DIR/SP/G                  HT/PER
                          (F)     (DEG/KT/KT) (MB)    (MI)  (FT/S)
WAUKEGAN HARBOR            27      50/ 18/ 22   N/A
HARRISON CRIB              26      20/ 20/ 22   N/A
BURNHAM HARBOR             26      30/ 15/ 20   N/A
CALUMET HARBOR             27      20/ 15/ 20   N/A
MICHIGAN CITY              25      20/ 17/ 19   N/A
$$

ILZ025>027-034>036-040-047-049-050-058-095>099-260400-
WEST-CENTRAL ILLINOIS

CITY           SKY/WX    TMP DP  RH WIND       PRES   REMARKS
QUINCY         CLOUDY    29  23  78 N12       30.03R WCI  19
GALESBURG*     CLEAR     23  19  87 N10       30.03R WCI  12
MACOMB*        CLEAR     26  20  79 N10       30.05R WCI  16
JACKSONVILLE*  CLOUDY    31  24  73 N14       29.99R WCI  21
PITTSFIELD*    CLOUDY    31  25  78 N9        30.02R WCI  23
$$

ILZ028>032-037-038-041>044-048-051>054-059>061-260400-
CENTRAL ILLINOIS

CITY           SKY/WX    TMP DP  RH WIND       PRES   REMARKS
PONTIAC        CLOUDY    29  24  81 N10       29.98R WCI  20
BLOOMINGTON    CLOUDY    28  24  85 N16G24    29.95R WCI  16
DECATUR        CLOUDY    30  29  96 N18       29.92R WCI  18
PEORIA         CLEAR     26  17  68 N9G18     30.00R WCI  17
LACON*         CLEAR     24  17  74 N8        30.00S WCI  15
LINCOLN*       CLOUDY    31  25  79 N14       29.98R WCI  21
SPRINGFIELD    CLOUDY    30  23  75 N17       29.97R WCI  18
TAYLORVILLE    CLOUDY    30  28  93 N20G26    29.94R WCI  18
$$

ILZ033-039-045-046-055>057-062-063-260400-
EAST-CENTRAL ILLINOIS

CITY           SKY/WX    TMP DP  RH WIND       PRES   REMARKS
CHAMPAIGN      FLURRIES  30  25  81 N15       29.89R WCI  19
DANVILLE*      CLOUDY    27  23  85 NE15G24   29.86S WCI  16
RANTOUL*       CLOUDY    30  27  86 N18       29.91R WCI  18
MATTOON        CLOUDY    30  25  81 N22G30    29.86R WCI  17
PARIS*         CLOUDY    28  26  89 NE15G21   29.87R WCI  17
$$

ILZ079-100>102-260400-
SOUTHWEST ILLINOIS

CITY           SKY/WX    TMP DP  RH WIND       PRES   REMARKS
BELLEVILLE     CLOUDY    33  32  97 N17       29.94R WCI  22
CAHOKIA*       CLOUDY    33  30  88 N18G24    29.97R WCI  22
SPARTA*        DRIZZLE   33  32  94 N18       29.92R WCI  22
$$

ILZ064>066-069>071-074>076-080>082-084>086-088>090-092>094-260400-
SOUTH-CENTRAL ILLINOIS

CITY           SKY/WX    TMP DP  RH WIND       PRES   REMARKS
CARBONDALE     CLOUDY    36  32  85 N21G31    29.86R WCI  25
CAIRO*         CLOUDY    41  39  90 NW18G31   29.84R
EFFINGHAM*     CLOUDY    32  27  80 N16G28    29.88R WCI  21
MARION         CLOUDY    37  36  93 N12G21    29.85R WCI  30
MT. VERNON     CLOUDY    34  28  80 N14G26    29.85R WCI  24
CENTRALIA*     CLOUDY    33  30  88 N22       29.88R WCI  21
SALEM*         CLOUDY    35  32  87 N16       29.87R WCI  25
METROPOLIS*    CLOUDY    39  39 100 NW16G25   29.80R FOG     WCI  31
$$

ILZ067-068-072-073-078-083-087-091-260400-
SOUTHEAST ILLINOIS

CITY           SKY/WX    TMP DP  RH WIND       PRES   REMARKS
LAWRENCEVILLE  CLOUDY    33  31  92 N18G26    29.80R WCI  22
FLORA*         CLOUDY    32  31  94 N16G25    29.85R WCI  21
FAIRFIELD*     CLOUDY    33  32  95 N17G26    29.82R WCI  23
HARRISBURG*    CLOUDY    37  37  99 NW16G25   29.82R FOG     WCI  27
ROBINSON*      CLOUDY    31  29  91 N18G26    29.82R WCI  20
CARMI*         CLOUDY    37  37 100 N22G31    29.79R FOG     WCI  27
$$

ABBREVIATIONS USED IN REMARKS
   TC - TEMPERATURE IN CELSIUS
  WCI - WIND CHILL INDEX
   HX - HEAT INDEX
  VSB - VISIBILITY
$$




USA.gov is the U.S. government's official web portal to all federal, state and local government web resources and services.